Curacao, Curacao

2:28 AM AST on October 19, 2017 (GMT -0400)
Willemstad-Hato International

Weather History for TNCC - August, 2013

Change the Weather History Date:

Friday, August 30, 2013

  Actual Average Record
Temperature  
Mean Temperature 88 °F -  
Max Temperature 95 °F 89 °F 95 °F (1999)
Min Temperature 81 °F 78 °F 75 °F (1997)
Cooling Degree Days 23    
Growing Degree Days 38 (Base 50)    
Moisture  
Dew Point 72 °F    
Average Humidity 61    
Maximum Humidity 79    
Minimum Humidity 35    
Precipitation  
Precipitation 0.00 in 0.06 in - ()
Sea Level Pressure  
Sea Level Pressure 29.88 in    
Wind  
Wind Speed 13 mph ()    
Max Wind Speed 22 mph    
Max Gust Speed -    
Visibility 6.2 miles    
Events      
Averages and records for this station are not official NWS values.
T = Trace of Precipitation, MM = Missing Value Source: Averaged Metar Reports

Daily Weather History Graph

Daily Weather History Graph

Search for Another Location

Airport or City:

Trip Planner

Search our weather history database for the weather conditions in past years. The results will help you decide how hot, cold, wet, or windy it might be!

Date:

Astronomy

Aug. 30, 2013 Rise Set
Actual Time 6:25 AM AST 6:47 PM AST
Civil Twilight 6:03 AM AST 7:08 PM AST
Nautical Twilight 5:38 AM AST 7:33 PM AST
Astronomical Twilight 5:13 AM AST 7:58 PM AST
Moon 1:31 AM AST (8/30) 2:30 PM AST (8/30)
Length of Visible Light 13h 04m
Length of Day
12h 22m
Waning Crescent, 29% of the Moon is Illuminated
Aug 30
Waning Crescent
Sep 5
New
Sep 12
First Quarter
Sep 19
Full
Sep 26
Last Quarter

Hourly Weather History & Observations

Time (AST) Temp. Heat Index Dew Point Humidity Pressure Visibility Wind Dir Wind Speed Gust Speed Precip Events Conditions
12:00 AM 84.2 °F 90.9 °F 73.4 °F 70% 29.89 in 6.2 mi SE 16.1 mph - N/A   Partly Cloudy
1:00 AM 84.2 °F 90.9 °F 73.4 °F 70% 29.89 in 6.2 mi SE 16.1 mph - N/A   Partly Cloudy
2:00 AM 84 °F - 73 °F 63% 29.88 in 28 mi SE 8.1 mph - -   Scattered Clouds
2:00 AM 84.2 °F 90.9 °F 73.4 °F 70% 29.86 in 6.2 mi SE 9.2 mph - N/A   Partly Cloudy
3:00 AM 84.2 °F 90.9 °F 73.4 °F 70% 29.86 in 6.2 mi SE 10.4 mph - N/A   Partly Cloudy
4:00 AM 82.4 °F 89.5 °F 75.2 °F 79% 29.86 in 6.2 mi SE 12.7 mph - N/A   Partly Cloudy
5:00 AM 82 °F - 75 °F 73% 29.88 in 28 mi ESE 8.1 mph - -   Scattered Clouds
5:00 AM 82.4 °F 89.5 °F 75.2 °F 79% 29.86 in 6.2 mi ESE 10.4 mph - N/A   Partly Cloudy
6:00 AM 82.4 °F 89.5 °F 75.2 °F 79% 29.89 in 6.2 mi ESE 9.2 mph - N/A   Partly Cloudy
7:00 AM 82.4 °F 89.5 °F 75.2 °F 79% 29.89 in 6.2 mi SE 10.4 mph - N/A   Partly Cloudy
8:00 AM 86 °F - 74 °F 61% 29.91 in 28 mi SE 12.7 mph - -   Scattered Clouds
8:00 AM 86.0 °F 93.4 °F 73.4 °F 66% 29.89 in 6.2 mi SE 13.8 mph - N/A   Partly Cloudy
9:00 AM 89.6 °F 96.2 °F 71.6 °F 55% 29.92 in 6.2 mi SE 18.4 mph - N/A   Partly Cloudy
10:00 AM 91.4 °F 95.4 °F 68.0 °F 46% 29.92 in 6.2 mi SE 17.3 mph - N/A   Partly Cloudy
11:00 AM 92 °F - 67 °F 35% 29.94 in 28 mi SSE 18.4 mph - -   Scattered Clouds
11:00 AM 91.4 °F 95.4 °F 68.0 °F 46% 29.92 in 6.2 mi SE 21.9 mph - N/A   Partly Cloudy
12:00 PM 91.4 °F 98.4 °F 71.6 °F 52% 29.92 in 6.2 mi ESE 16.1 mph - N/A   Partly Cloudy
1:00 PM 93.2 °F 98.8 °F 69.8 °F 46% 29.89 in 6.2 mi ESE 18.4 mph - N/A   Partly Cloudy
2:00 PM 92 °F - 68 °F 35% 29.87 in 31 mi SE 17.3 mph - -   Scattered Clouds
2:00 PM 93.2 °F 97.7 °F 68.0 °F 44% 29.86 in 6.2 mi SE 19.6 mph - N/A   Partly Cloudy
3:00 PM 93.2 °F 98.8 °F 69.8 °F 46% 29.83 in 6.2 mi ESE 19.6 mph - N/A   Partly Cloudy
4:00 PM 89.6 °F 98.2 °F 73.4 °F 59% 29.83 in 6.2 mi East 16.1 mph - N/A   Partly Cloudy
5:00 PM 87 °F - 74 °F 57% 29.83 in 31 mi ESE 15.0 mph - -   Clear
5:00 PM 87.8 °F 95.6 °F 73.4 °F 62% 29.83 in - East 15.0 mph - N/A   Clear
6:00 PM 86.0 °F 95.1 °F 75.2 °F 70% 29.83 in - East 16.1 mph - N/A   Clear
7:00 PM 86.0 °F 91.8 °F 71.6 °F 62% 29.86 in - ESE 13.8 mph - N/A   Clear
8:00 PM 85 °F - 72 °F 56% 29.88 in 31 mi ESE 15.0 mph - -   Clear
8:00 PM 84.2 °F 89.6 °F 71.6 °F 66% 29.86 in - ESE 13.8 mph - N/A   Clear
9:00 PM 84.2 °F 90.9 °F 73.4 °F 70% 29.89 in - ESE 12.7 mph - N/A   Clear
10:00 PM 84.2 °F 90.9 °F 73.4 °F 70% 29.92 in - ESE 12.7 mph - N/A   Clear